Înnorat
Înnorat cu ploaie ușoară
Înnorat
Înnorat
Cer parțial înnorat, cu nori Cirrus
Înnorat
Parțial înnorat și nori Cirrus
(°C)
16°
16°
15°
15°
14°
14°
14°
14°
14°
14°
15°
15°
15°
15°
(°C)
14°
13°
13°
13°
13°
14°
14°
S
SSV
SSV
SSV
SV
SSV
S
(km/h)
7-17
8-22
8-20
7-15
7-15
7-16
7-13
(mm)
0
0.1
0
0
0
0
0
(%)
12
65
46
34
11
0
1

Elevația soarelui

/ -16.9°
sun-icon
UV 3
04:57
21:03
Ultimul sfert de lună (267°)
01:58
12:01

METAR pentru 50.1°N 14.27°E (LKPR)

Ora Condiții Temperatură/
Punctul de rouă
Vânt Vizibilitate Vremea Nori Presiune Schimbă Brut
VFR 15°C / 10°C 160º 4kt 9700m - Clouds and Visibility OK 1010 No Significant change LKPR 292330Z 16004KT CAVOK 15/10 Q1010 NOSIG
VFR 15°C / 11°C 160º 5kt 9700m - Clouds and Visibility OK 1010 No Significant change LKPR 292300Z 16005KT CAVOK 15/11 Q1010 NOSIG
VFR 16°C / 11°C 160º 4kt 9700m - Clouds and Visibility OK 1011 No Significant change LKPR 292230Z 16004KT CAVOK 16/11 Q1011 NOSIG
VFR 16°C / 10°C 150º 5kt 9700m - Clouds and Visibility OK 1011 No Significant change LKPR 292200Z 15005KT CAVOK 16/10 Q1011 NOSIG
VFR 16°C / 11°C 170º 4kt 9700m - Clouds and Visibility OK 1011 No Significant change LKPR 292130Z 17004KT CAVOK 16/11 Q1011 NOSIG
VFR 16°C / 11°C 170º 4kt 9700m - Clouds and Visibility OK 1011 No Significant change LKPR 292100Z 17004KT CAVOK 16/11 Q1011 NOSIG
VFR 16°C / 12°C 200º 4kt 9700m - Clouds and Visibility OK 1011 No Significant change LKPR 292030Z 20004KT CAVOK 16/12 Q1011 NOSIG
VFR 16°C / 11°C 180º 3kt 9700m - Clouds and Visibility OK 1011 No Significant change LKPR 292000Z 18003KT CAVOK 16/11 Q1011 NOSIG
VFR 15°C / 11°C 190º 3kt 9700m - Clouds and Visibility OK 1011 No Significant change LKPR 291930Z 19003KT CAVOK 15/11 Q1011 NOSIG
VFR 16°C / 10°C 180º 3kt 9700m - Clouds and Visibility OK 1011 No Significant change LKPR 291900Z 18003KT CAVOK 16/10 Q1011 NOSIG
VFR 18°C / 11°C 170º 4kt 9700m - Clouds and Visibility OK 1011 No Significant change LKPR 291830Z 17004KT CAVOK 18/11 Q1011 NOSIG
VFR 18°C / 12°C 190º variable 150º to 220º 4kt 9700m - Clouds and Visibility OK 1011 No Significant change LKPR 291800Z 19004KT 150V220 CAVOK 18/12 Q1011 NOSIG
VFR 18°C / 11°C 190º variable 150º to 220º 5kt 9700m - Clouds and Visibility OK 1012 No Significant change LKPR 291730Z 19005KT 150V220 CAVOK 18/11 Q1012 NOSIG
VFR 19°C / 10°C 200º variable 080º to 240º 5kt 9700m - Clouds and Visibility OK 1012 No Significant change LKPR 291700Z 20005KT 080V240 CAVOK 19/10 Q1012 NOSIG
VFR 20°C / 10°C 4kt 9700m - Clouds and Visibility OK 1012 No Significant change LKPR 291630Z VRB04KT CAVOK 20/10 Q1012 NOSIG
VFR 20°C / 10°C 210º variable 160º to 230º 5kt 9700m - Clouds and Visibility OK 1012 No Significant change LKPR 291600Z 21005KT 160V230 CAVOK 20/10 Q1012 NOSIG
VFR 20°C / 11°C 230º variable 200º to 260º 5kt 9700m - Clouds and Visibility OK 1012 No Significant change LKPR 291530Z 23005KT 200V260 CAVOK 20/11 Q1012 NOSIG
VFR 20°C / 10°C 250º variable 200º to 290º 4kt 9700m - Clouds and Visibility OK 1012 No Significant change LKPR 291500Z 25004KT 200V290 CAVOK 20/10 Q1012 NOSIG
VFR 20°C / 9°C 240º variable 210º to 270º 6kt 9700m - Clouds and Visibility OK 1013 No Significant change LKPR 291430Z 24006KT 210V270 CAVOK 20/09 Q1013 NOSIG
VFR 20°C / 8°C 250º variable 210º to 270º 5kt 9700m - Clouds and Visibility OK 1013 No Significant change LKPR 291400Z 25005KT 210V270 CAVOK 20/08 Q1013 NOSIG
VFR 20°C / 9°C 4kt 9700m - Clouds and Visibility OK 1013 No Significant change LKPR 291330Z VRB04KT CAVOK 20/09 Q1013 NOSIG
VFR 20°C / 8°C 2kt 9700m - Clouds and Visibility OK 1014 No Significant change LKPR 291300Z VRB02KT CAVOK 20/08 Q1014 NOSIG
VFR 20°C / 9°C 2kt 9700m - Clouds and Visibility OK 1014 No Significant change LKPR 291230Z VRB02KT CAVOK 20/09 Q1014 NOSIG
VFR 20°C / 10°C 3kt 9700m - Clouds and Visibility OK 1014 No Significant change LKPR 291200Z VRB03KT CAVOK 20/10 Q1014 NOSIG

VFR

15°C / 10°C

[Mai mult]
Vânt 160º 4kt
Vizibilitate 9700m
Vremea -
Nori Clouds and Visibility OK
Presiune 1010
Schimbă No Significant change
Brut LKPR 292330Z 16004KT CAVOK 15/10 Q1010 NOSIG

VFR

15°C / 11°C

[Mai mult]
Vânt 160º 5kt
Vizibilitate 9700m
Vremea -
Nori Clouds and Visibility OK
Presiune 1010
Schimbă No Significant change
Brut LKPR 292300Z 16005KT CAVOK 15/11 Q1010 NOSIG

VFR

16°C / 11°C

[Mai mult]
Vânt 160º 4kt
Vizibilitate 9700m
Vremea -
Nori Clouds and Visibility OK
Presiune 1011
Schimbă No Significant change
Brut LKPR 292230Z 16004KT CAVOK 16/11 Q1011 NOSIG

VFR

16°C / 10°C

[Mai mult]
Vânt 150º 5kt
Vizibilitate 9700m
Vremea -
Nori Clouds and Visibility OK
Presiune 1011
Schimbă No Significant change
Brut LKPR 292200Z 15005KT CAVOK 16/10 Q1011 NOSIG

VFR

16°C / 11°C

[Mai mult]
Vânt 170º 4kt
Vizibilitate 9700m
Vremea -
Nori Clouds and Visibility OK
Presiune 1011
Schimbă No Significant change
Brut LKPR 292130Z 17004KT CAVOK 16/11 Q1011 NOSIG

VFR

16°C / 11°C

[Mai mult]
Vânt 170º 4kt
Vizibilitate 9700m
Vremea -
Nori Clouds and Visibility OK
Presiune 1011
Schimbă No Significant change
Brut LKPR 292100Z 17004KT CAVOK 16/11 Q1011 NOSIG

VFR

16°C / 12°C

[Mai mult]
Vânt 200º 4kt
Vizibilitate 9700m
Vremea -
Nori Clouds and Visibility OK
Presiune 1011
Schimbă No Significant change
Brut LKPR 292030Z 20004KT CAVOK 16/12 Q1011 NOSIG

VFR

16°C / 11°C

[Mai mult]
Vânt 180º 3kt
Vizibilitate 9700m
Vremea -
Nori Clouds and Visibility OK
Presiune 1011
Schimbă No Significant change
Brut LKPR 292000Z 18003KT CAVOK 16/11 Q1011 NOSIG

VFR

15°C / 11°C

[Mai mult]
Vânt 190º 3kt
Vizibilitate 9700m
Vremea -
Nori Clouds and Visibility OK
Presiune 1011
Schimbă No Significant change
Brut LKPR 291930Z 19003KT CAVOK 15/11 Q1011 NOSIG

VFR

16°C / 10°C

[Mai mult]
Vânt 180º 3kt
Vizibilitate 9700m
Vremea -
Nori Clouds and Visibility OK
Presiune 1011
Schimbă No Significant change
Brut LKPR 291900Z 18003KT CAVOK 16/10 Q1011 NOSIG

VFR

18°C / 11°C

[Mai mult]
Vânt 170º 4kt
Vizibilitate 9700m
Vremea -
Nori Clouds and Visibility OK
Presiune 1011
Schimbă No Significant change
Brut LKPR 291830Z 17004KT CAVOK 18/11 Q1011 NOSIG

VFR

18°C / 12°C

[Mai mult]
Vânt 190º variable 150º to 220º 4kt
Vizibilitate 9700m
Vremea -
Nori Clouds and Visibility OK
Presiune 1011
Schimbă No Significant change
Brut LKPR 291800Z 19004KT 150V220 CAVOK 18/12 Q1011 NOSIG

VFR

18°C / 11°C

[Mai mult]
Vânt 190º variable 150º to 220º 5kt
Vizibilitate 9700m
Vremea -
Nori Clouds and Visibility OK
Presiune 1012
Schimbă No Significant change
Brut LKPR 291730Z 19005KT 150V220 CAVOK 18/11 Q1012 NOSIG

VFR

19°C / 10°C

[Mai mult]
Vânt 200º variable 080º to 240º 5kt
Vizibilitate 9700m
Vremea -
Nori Clouds and Visibility OK
Presiune 1012
Schimbă No Significant change
Brut LKPR 291700Z 20005KT 080V240 CAVOK 19/10 Q1012 NOSIG

VFR

20°C / 10°C

[Mai mult]
Vânt 4kt
Vizibilitate 9700m
Vremea -
Nori Clouds and Visibility OK
Presiune 1012
Schimbă No Significant change
Brut LKPR 291630Z VRB04KT CAVOK 20/10 Q1012 NOSIG

VFR

20°C / 10°C

[Mai mult]
Vânt 210º variable 160º to 230º 5kt
Vizibilitate 9700m
Vremea -
Nori Clouds and Visibility OK
Presiune 1012
Schimbă No Significant change
Brut LKPR 291600Z 21005KT 160V230 CAVOK 20/10 Q1012 NOSIG

VFR

20°C / 11°C

[Mai mult]
Vânt 230º variable 200º to 260º 5kt
Vizibilitate 9700m
Vremea -
Nori Clouds and Visibility OK
Presiune 1012
Schimbă No Significant change
Brut LKPR 291530Z 23005KT 200V260 CAVOK 20/11 Q1012 NOSIG

VFR

20°C / 10°C

[Mai mult]
Vânt 250º variable 200º to 290º 4kt
Vizibilitate 9700m
Vremea -
Nori Clouds and Visibility OK
Presiune 1012
Schimbă No Significant change
Brut LKPR 291500Z 25004KT 200V290 CAVOK 20/10 Q1012 NOSIG

VFR

20°C / 9°C

[Mai mult]
Vânt 240º variable 210º to 270º 6kt
Vizibilitate 9700m
Vremea -
Nori Clouds and Visibility OK
Presiune 1013
Schimbă No Significant change
Brut LKPR 291430Z 24006KT 210V270 CAVOK 20/09 Q1013 NOSIG

VFR

20°C / 8°C

[Mai mult]
Vânt 250º variable 210º to 270º 5kt
Vizibilitate 9700m
Vremea -
Nori Clouds and Visibility OK
Presiune 1013
Schimbă No Significant change
Brut LKPR 291400Z 25005KT 210V270 CAVOK 20/08 Q1013 NOSIG

VFR

20°C / 9°C

[Mai mult]
Vânt 4kt
Vizibilitate 9700m
Vremea -
Nori Clouds and Visibility OK
Presiune 1013
Schimbă No Significant change
Brut LKPR 291330Z VRB04KT CAVOK 20/09 Q1013 NOSIG

VFR

20°C / 8°C

[Mai mult]
Vânt 2kt
Vizibilitate 9700m
Vremea -
Nori Clouds and Visibility OK
Presiune 1014
Schimbă No Significant change
Brut LKPR 291300Z VRB02KT CAVOK 20/08 Q1014 NOSIG

VFR

20°C / 9°C

[Mai mult]
Vânt 2kt
Vizibilitate 9700m
Vremea -
Nori Clouds and Visibility OK
Presiune 1014
Schimbă No Significant change
Brut LKPR 291230Z VRB02KT CAVOK 20/09 Q1014 NOSIG

VFR

20°C / 10°C

[Mai mult]
Vânt 3kt
Vizibilitate 9700m
Vremea -
Nori Clouds and Visibility OK
Presiune 1014
Schimbă No Significant change
Brut LKPR 291200Z VRB03KT CAVOK 20/10 Q1014 NOSIG

TAF pentru 50.1°N 14.27°E (LKPR)

From till


From till Wind 170º 5kt. Visibility 9700m. Scattered Clouds 4500ft.
Temporarly from till Visibility 9000m. Light Rain . Broken Clouds 2500ft.
Temporarly from till Wind 240º 16kt. Visibility 6000m. Showers Rain . Scattered Clouds 2000ft.
With 30% probability, Temporarly from till Thunderstorm Rain . Scattered Clouds 2000ft.
Temporarly from till Visibility 3000m. patches Fog . Scattered Clouds 300ft.

Brut: TAF LKPR 292300Z 3000/3106 17005KT 9999 SCT045 TEMPO 3000/3010 9000 -RA BKN025 TEMPO 3010/3020 24016KT 6000 SHRA SCT020TCU PROB30 TEMPO 3014/3018 TSRA SCT020CB TEMPO 3021/3105 3000 BCFG SCT003

Radar și nowcast de precipitații pentru 50.1°N 14.27°E

Burniță
Ușoară
Moderat
Greu
Foarte greu
Grindină

Markerul de locație este plasat în 50.1°N 14.27°E. Această animație arată radarul de precipitații pentru intervalul de timp selectat, precum și o prognoză 2h. Crucile portocalii indică fulgerele. Date furnizate de nowcast.de (disponibile în SUA, Europa, Australia). Ploaia sau ninsoarea slabă ar putea fi invizibilă pentru radar. Intensitatea precipitațiilor este codificată prin culori, de la turcoaz la roșu.

Imagini satelitare și ploaie pentru 50.1°N 14.27°E

Markerul cu locaţia este poziţionat pe 50.1°N 14.27°E. [Mai mult]

Imaginea satelitară în timp real combină lumina vizibilă din timpul zilei cu radiația cu infraroșu din timpul nopții. Pe timp de noapte, imaginea nu este întunecată, deoarece radiația cu infraroșu poate detecta diferențele de temperatură. Din păcate, norii joși și ceața sunt greu de recunoscut față de temperatura de la sol, din această cauză putând fi invizibili pe timp de noapte. Imaginile satelitare Meteosat pentru Europa sunt actualizate în timp real din 5 în 5 minute. Imaginile GOES-16/GOES-17 (America de Nord și de Sud) și Himawari (Asia) sunt actualizate din 10 în 10 minute.

Precipitațiile sunt estimate pe baza radarelor și a sateliților. Estimările de precipitații de la sateliți sunt mai puțin precise pe timp de noapte decât pe timp de zi.

© 2024 meteoblue, NOAA Satellites GOES-16 and EUMETSAT. Datele despre fulgere furnizate de către nowcast.

Mergi sus
×
Bună ziua,
se pare că folosiți un blocant de reclame.

Publicitatea este esențială pentru a menține site-ul nostru gratuit cu detalii și acuratețe unice.

Vă rugăm să whitelist www.meteoblue.com în ad blocker-ul dvs. sau luați în considerare cumpărarea unuia dintre produsele noastre:

Aveți deja un abonament?
Atunci vă rugăm login.